Regional Weather Roundup
Issued by NWS

Home | Current Version | Previous Version | Text Only | Print | Product List | Glossary On
Versions: 1 2 3 4 5 6 7 8 9 10 11 12 13 14 15 16 17 18 19 20 21 22 23 24 25 26 27 28 29 30 31 32 33 34 35 36 37 38 39 40 41 42 43 44 45 46 47 48 49 50
000
ASUS42 KFFC 210710
RWRGA
WEATHER ROUNDUP FOR GEORGIA
NATIONAL WEATHER SERVICE PEACHTREE CITY GA
300 AM EDT THU SEP 21 2017

NOTE: "FAIR" INDICATES FEW OR NO CLOUDS BELOW 12,000 FEET WITH NO
SIGNIFICANT WEATHER AND/OR OBSTRUCTIONS TO VISIBILITY.

* = USE WITH CAUTION. THE STATIONS MARKED WITH AN ASTERISK MAY NOT
REPORT WEATHER SUCH AS PRECIPITATION, FOG, OR THUNDER AND ARE NOT
QUALITY CONTROLLED BY NWS.

THE REMARK "TC" DENOTES TEMPERATURE READING IN DEGREES CELSIUS.

GAZ001>058-210800-
NORTH GEORGIA

CITY           SKY/WX    TMP DP  RH WIND       PRES   REMARKS
ATLANTA        PTCLDY    71  67  87 NW3       30.04F
ATHENS         CLEAR     68  68 100 CALM      30.03S
CHAMBLEE       CLEAR     67  66  97 S3        30.04S
PEACHTREE CITY CLEAR     67  65  93 CALM      30.05S
ROME           CLEAR     69  69 100 CALM      30.04R
WEST ATLANTA   CLEAR     69  69 100 CALM      30.04S
GAINESVILLE    CLEAR     70  65  84 CALM      30.06F
CARTERSVILLE   CLEAR     65  65 100 CALM      30.04F


CITY           SKY/WX    TMP DP  RH WIND       PRES   REMARKS
DALTON*        CLEAR     66  66 100 CALM      30.05F
MARIETTA       CLEAR     69  66  91 CALM      30.04S
CANTON*        CLEAR     70  70 100 CALM      30.06S
$$

GAZ059>098-102>109-210800-
CENTRAL GEORGIA

CITY           SKY/WX    TMP DP  RH WIND       PRES   REMARKS
AUGUSTA-BUSH   PTCLDY    71  69  93 CALM      30.00F FOG
AUGUSTA-DANIEL CLEAR     75  72  90 SE3       30.01F
COLUMBUS       PTCLDY    74  69  85 SE5       30.01S
MACON          PTCLDY    68  68 100 S5        30.01F
ROBINS AFB     CLEAR     71  70  97 CALM      30.00F


CITY           SKY/WX    TMP DP  RH WIND       PRES   REMARKS
LAGRANGE*      PTCLDY    68  67  98 CALM      30.03F
SYLVANIA*      MOCLDY    71  71 100 CALM      30.02F
MILLEDGEVILLE* PTCLDY    72  72 100 CALM      30.01F FOG
$$

GAZ099>101-110>166-210800-
SOUTH GEORGIA

CITY           SKY/WX    TMP DP  RH WIND       PRES   REMARKS
SAVANNAH       CLEAR     73  71  93 CALM      30.01F
VALDOSTA       PTCLDY    71  70  96 CALM      29.98F FOG
ALMA           CLEAR     70  68  93 CALM      30.00F FOG
ST SIMONS      PTCLDY    78  75  90 CALM      29.99F
FT STEWART     CLEAR     71  69  92 CALM      29.98F
ALBANY         CLOUDY    73  71  93 CALM      30.00F
HUNTER AFB     CLEAR     73  71  95 CALM      29.98F
MOODY AFB      CLEAR     72  70  94 CALM      29.98F
BRUNSWICK      CLEAR     72  70  94 CALM      30.00F FOG


CITY           SKY/WX    TMP DP  RH WIND       PRES   REMARKS
BAINBRIDGE*    PTCLDY    75  73  94 CALM      29.98F
MOULTRIE*      CLOUDY    72  70  94 CALM      30.00F
VIDALIA*       CLEAR     72  72 100 CALM      30.02S
WAYCROSS*      CLEAR     72  69  90 CALM      30.00F FOG
DOUGLAS*       CLEAR     70  70 100 CALM      30.02F FOG
$$




USA.gov is the U.S. government's official web portal to all federal, state and local government web resources and services.